TimeEDT,TemperatureF,Dew PointF,Humidity,Sea Level PressureIn,VisibilityMPH,Wind Direction,Wind SpeedMPH,Gust SpeedMPH,PrecipitationIn,Events,Conditions,WindDirDegrees,DateUTC
12:53 AM,55.9,53.1,90,30.00,10.0,WSW,5.8,-,0.00,Rain,Light Rain,240,2013-05-05 04:53:00
1:53 AM,55.0,52.0,89,29.98,10.0,Calm,Calm,-,0.00,Rain,Light Rain,0,2013-05-05 05:53:00
2:53 AM,55.0,52.0,89,29.95,10.0,NW,3.5,-,0.00,,Overcast,320,2013-05-05 06:53:00
3:53 AM,55.9,52.0,87,29.93,10.0,NNW,9.2,-,0.00,,Overcast,340,2013-05-05 07:53:00
4:53 AM,55.9,52.0,87,29.93,6.0,North,4.6,-,0.00,Rain,Light Rain,10,2013-05-05 08:53:00
5:53 AM,55.9,52.0,87,29.93,6.0,NE,5.8,-,0.00,Rain,Light Rain,50,2013-05-05 09:53:00
6:53 AM,55.9,52.0,87,29.92,9.0,NNE,8.1,-,0.00,Rain,Light Rain,30,2013-05-05 10:53:00
7:53 AM,55.9,53.1,90,29.94,10.0,ENE,6.9,-,0.00,,Overcast,70,2013-05-05 11:53:00
8:53 AM,57.0,52.0,83,29.94,10.0,East,12.7,-,0.00,Rain,Light Rain,90,2013-05-05 12:53:00
9:53 AM,57.0,50.0,77,29.94,10.0,East,10.4,-,0.00,Rain,Light Rain,80,2013-05-05 13:53:00
10:53 AM,57.9,50.0,75,29.92,10.0,East,10.4,-,0.00,Rain,Light Rain,80,2013-05-05 14:53:00
11:53 AM,59.0,50.0,72,29.94,10.0,East,11.5,-,0.00,Rain,Light Rain,90,2013-05-05 15:53:00
12:53 PM,57.0,50.0,77,29.95,5.0,East,10.4,-,0.02,Rain,Light Rain,90,2013-05-05 16:53:00
2:31 PM,60.8,50.0,68,29.94,10.0,East,17.3,25.3,0.00,,Overcast,100,2013-05-05 18:31:00
2:51 PM,60.8,48.2,63,29.94,10.0,ESE,17.3,23.0,0.00,,Overcast,110,2013-05-05 18:51:00
2:53 PM,60.1,48.0,64,29.94,10.0,ESE,16.1,23.0,0.00,,Overcast,110,2013-05-05 18:53:00
3:53 PM,59.0,48.9,69,29.93,10.0,East,15.0,-,0.00,Rain,Light Rain,90,2013-05-05 19:53:00
4:11 PM,57.2,48.2,72,29.93,10.0,East,15.0,23.0,0.00,Rain,Light Rain,100,2013-05-05 20:11:00
4:53 PM,57.9,50.0,75,29.92,10.0,East,15.0,23.0,0.00,Rain,Light Rain,90,2013-05-05 20:53:00
5:25 PM,55.4,50.0,82,29.92,9.0,East,10.4,-,0.01,Rain,Light Rain,100,2013-05-05 21:25:00
5:53 PM,57.0,51.1,81,29.92,7.0,East,16.1,24.2,0.02,Rain,Light Rain,80,2013-05-05 21:53:00
6:53 PM,55.0,50.0,83,29.92,7.0,East,11.5,-,0.01,Rain,Light Rain,90,2013-05-05 22:53:00
7:02 PM,55.4,50.0,82,29.92,9.0,East,9.2,-,0.00,Rain,Light Rain,80,2013-05-05 23:02:00
7:53 PM,55.0,50.0,83,29.92,10.0,ENE,6.9,-,0.00,Rain,Light Rain,70,2013-05-05 23:53:00
8:53 PM,55.0,48.0,77,29.92,10.0,East,11.5,-,0.00,,Overcast,80,2013-05-06 00:53:00
9:53 PM,55.9,46.9,72,29.91,10.0,East,16.1,23.0,0.00,,Overcast,90,2013-05-06 01:53:00
10:53 PM,55.9,48.0,75,29.91,10.0,East,8.1,-,N/A,,Mostly Cloudy,80,2013-05-06 02:53:00
11:53 PM,55.9,48.0,75,29.91,10.0,NE,9.2,-,N/A,,Overcast,40,2013-05-06 03:53:00